When you browse on this site, cookies collect data to enhance your experience and personalize the content and advertising you see.
Visit our Privacy Policy to learn more. By continuing to use the site, you agree to this use of cookies and data.
  • In Hungary
  • List of Countries
  • For 7 days
  • Water Temperature
  • Satellite Maps
  • Weather Map
  • News
  • Weather Widgets
  • user-avatar
    Login

    Hourly Weather Dorchester

    Today, 18 February, Monday

    Time Temperature Precipitation Wind Pressure Humidity
    00:00 +7°C° 0 mm 3 mps 757 mmHg 95%
    01:00 +6°C° 0 mm 4 mps 757 mmHg 95%
    02:00 +6°C° 0 mm 4 mps 756 mmHg 95%
    03:00 +6°C° 0 mm 4 mps 756 mmHg 95%
    04:00 +6°C° 0 mm 4 mps 756 mmHg 95%
    05:00 +6°C° 0 mm 4 mps 756 mmHg 95%
    06:00 +6°C° 0 mm 4 mps 756 mmHg 95%
    07:00 +6°C° 0.1 mm 4 mps 756 mmHg 93%
    08:00 +7°C° 0.1 mm 5 mps 756 mmHg 92%
    09:00 +8°C° 0.1 mm 5 mps 756 mmHg 90%
    10:00 +8°C° 0.3 mm 5 mps 756 mmHg 88%
    11:00 +8°C° 0.3 mm 5 mps 756 mmHg 87%
    12:00 +8°C° 0 mm 5 mps 756 mmHg 87%
    13:00 +8°C° 0.2 mm 5 mps 756 mmHg 86%
    14:00 +8°C° 0.2 mm 5 mps 756 mmHg 84%
    15:00 +8°C° 0.2 mm 5 mps 755 mmHg 83%
    16:00 +7°C° 0 mm 5 mps 756 mmHg 85%
    17:00 +6°C° 0 mm 4 mps 756 mmHg 88%
    18:00 +7°C° 0 mm 3 mps 756 mmHg 90%
    19:00 +5°C° 0 mm 3 mps 756 mmHg 90%
    20:00 +4°C° 0 mm 3 mps 756 mmHg 90%
    21:00 +4°C° 0 mm 4 mps 756 mmHg 89%
    22:00 +4°C° 0 mm 4 mps 757 mmHg 90%
    23:00 +4°C° 0 mm 4 mps 757 mmHg 91%

    Tomorrow, 19 February, Tuesday

    Time Temperature Precipitation Wind Pressure Humidity
    00:00 +4°C° 0 mm 4 mps 757 mmHg 92%
    01:00 +4°C° 0 mm 4 mps 757 mmHg 92%
    02:00 +4°C° 0 mm 4 mps 757 mmHg 93%
    03:00 +3°C° 0 mm 4 mps 758 mmHg 94%
    04:00 +3°C° 0 mm 4 mps 758 mmHg 94%
    05:00 +3°C° 0 mm 4 mps 758 mmHg 95%
    06:00 +3°C° 0 mm 3 mps 758 mmHg 95%
    07:00 +3°C° 0 mm 4 mps 758 mmHg 93%
    08:00 +4°C° 0 mm 4 mps 759 mmHg 91%
    09:00 +5°C° 0 mm 4 mps 759 mmHg 89%
    10:00 +6°C° 0 mm 4 mps 759 mmHg 83%
    11:00 +7°C° 0 mm 5 mps 759 mmHg 78%
    12:00 +8°C° 0 mm 5 mps 759 mmHg 72%
    13:00 +8°C° 0 mm 5 mps 759 mmHg 71%
    14:00 +9°C° 0 mm 5 mps 759 mmHg 71%
    15:00 +9°C° 0 mm 5 mps 759 mmHg 70%
    16:00 +8°C° 0 mm 5 mps 759 mmHg 74%
    17:00 +7°C° 0 mm 5 mps 759 mmHg 78%
    18:00 +6°C° 0 mm 4 mps 758 mmHg 82%
    19:00 +6°C° 0.1 mm 5 mps 758 mmHg 83%
    20:00 +6°C° 0.1 mm 5 mps 758 mmHg 83%
    21:00 +5°C° 0.1 mm 6 mps 758 mmHg 84%
    22:00 +5°C° 0.2 mm 6 mps 758 mmHg 85%
    23:00 +5°C° 0.2 mm 6 mps 758 mmHg 86%

    Day after tomorrow, 20 February, Wednesday

    Time Temperature Precipitation Wind Pressure Humidity
    00:00 +5°C° 0.2 mm 6 mps 758 mmHg 87%
    01:00 +5°C° 0.2 mm 7 mps 758 mmHg 87%
    02:00 +5°C° 0.2 mm 7 mps 758 mmHg 87%
    03:00 +6°C° 0.2 mm 7 mps 758 mmHg 88%
    04:00 +6°C° 0 mm 7 mps 758 mmHg 88%
    05:00 +6°C° 0 mm 7 mps 758 mmHg 88%
    06:00 +7°C° 0 mm 6 mps 758 mmHg 88%
    07:00 +7°C° 0 mm 6 mps 758 mmHg 87%
    08:00 +6°C° 0 mm 7 mps 758 mmHg 87%
    09:00 +8°C° 0 mm 7 mps 759 mmHg 87%
    10:00 +8°C° 0 mm 7 mps 759 mmHg 85%
    11:00 +9°C° 0 mm 7 mps 759 mmHg 82%
    12:00 +10°C° 0 mm 7 mps 759 mmHg 80%
    13:00 +9°C° 0 mm 7 mps 760 mmHg 80%
    14:00 +9°C° 0 mm 6 mps 760 mmHg 81%
    15:00 +9°C° 0 mm 6 mps 760 mmHg 81%
    16:00 +9°C° 0 mm 6 mps 760 mmHg 83%
    17:00 +8°C° 0 mm 5 mps 760 mmHg 84%
    18:00 +8°C° 0 mm 5 mps 760 mmHg 85%
    19:00 +7°C° 0 mm 5 mps 761 mmHg 88%
    20:00 +7°C° 0 mm 4 mps 761 mmHg 91%
    21:00 +6°C° 0 mm 4 mps 761 mmHg 94%
    22:00 +6°C° 0 mm 4 mps 762 mmHg 94%
    23:00 +6°C° 0 mm 4 mps 762 mmHg 95%

    21 February, Thursday

    Time Temperature Precipitation Wind Pressure Humidity
    00:00 +6°C° 0 mm 4 mps 762 mmHg 95%
    01:00 +5°C° 0 mm 4 mps 762 mmHg 96%
    02:00 +5°C° 0 mm 3 mps 763 mmHg 96%
    03:00 +5°C° 0 mm 3 mps 763 mmHg 96%
    04:00 +5°C° 0 mm 3 mps 763 mmHg 97%
    05:00 +5°C° 0 mm 3 mps 763 mmHg 97%
    06:00 +5°C° 0 mm 3 mps 763 mmHg 97%
    07:00 +5°C° 0 mm 3 mps 764 mmHg 96%
    08:00 +7°C° 0 mm 3 mps 764 mmHg 94%
    09:00 +7°C° 0 mm 4 mps 765 mmHg 92%
    10:00 +8°C° 0 mm 4 mps 765 mmHg 87%
    11:00 +10°C° 0 mm 4 mps 766 mmHg 82%
    12:00 +12°C° 0 mm 4 mps 766 mmHg 77%
    13:00 +12°C° 0 mm 4 mps 766 mmHg 76%
    14:00 +13°C° 0 mm 4 mps 766 mmHg 74%
    15:00 +13°C° 0 mm 4 mps 766 mmHg 73%
    16:00 +11°C° 0 mm 4 mps 766 mmHg 79%
    17:00 +10°C° 0 mm 3 mps 767 mmHg 84%
    18:00 +9°C° 0 mm 3 mps 767 mmHg 90%
    19:00 +8°C° 0 mm 3 mps 767 mmHg 91%
    20:00 +7°C° 0 mm 3 mps 768 mmHg 91%
    21:00 +7°C° 0 mm 3 mps 768 mmHg 92%
    22:00 +5°C° 0 mm 3 mps 769 mmHg 91%
    23:00 +5°C° 0 mm 3 mps 769 mmHg 91%

    22 February, Friday

    Time Temperature Precipitation Wind Pressure Humidity
    00:00 +5°C° 0 mm 3 mps 770 mmHg 90%
    01:00 +5°C° 0 mm 3 mps 770 mmHg 90%
    02:00 +5°C° 0 mm 3 mps 770 mmHg 90%
    03:00 +5°C° 0 mm 3 mps 770 mmHg 91%
    04:00 +5°C° 0 mm 3 mps 770 mmHg 91%
    05:00 +5°C° 0 mm 3 mps 770 mmHg 92%
    06:00 +5°C° 0 mm 2 mps 770 mmHg 92%
    07:00 +5°C° 0 mm 3 mps 771 mmHg 91%
    08:00 +7°C° 0 mm 3 mps 771 mmHg 90%
    09:00 +8°C° 0 mm 3 mps 771 mmHg 89%
    10:00 +10°C° 0 mm 3 mps 772 mmHg 83%
    11:00 +11°C° 0 mm 3 mps 772 mmHg 78%
    12:00 +13°C° 0 mm 4 mps 772 mmHg 72%
    13:00 +13°C° 0 mm 4 mps 772 mmHg 71%
    14:00 +14°C° 0 mm 4 mps 772 mmHg 70%
    15:00 +14°C° 0 mm 4 mps 772 mmHg 68%
    16:00 +12°C° 0 mm 3 mps 772 mmHg 75%
    17:00 +11°C° 0 mm 3 mps 771 mmHg 82%
    18:00 +9°C° 0 mm 3 mps 771 mmHg 89%
    19:00 +8°C° 0 mm 3 mps 772 mmHg 90%
    20:00 +8°C° 0 mm 3 mps 772 mmHg 91%
    21:00 +7°C° 0 mm 3 mps 772 mmHg 91%
    22:00 +7°C° 0 mm 3 mps 772 mmHg 91%
    23:00 +7°C° 0 mm 3 mps 772 mmHg 92%

    23 February, Saturday

    Time Temperature Precipitation Wind Pressure Humidity
    00:00 +7°C° 0 mm 3 mps 772 mmHg 92%
    01:00 +7°C° 0 mm 3 mps 772 mmHg 92%
    02:00 +7°C° 0 mm 3 mps 772 mmHg 93%
    03:00 +7°C° 0 mm 3 mps 772 mmHg 93%
    04:00 +5°C° 0 mm 3 mps 771 mmHg 92%
    05:00 +5°C° 0 mm 3 mps 771 mmHg 92%
    06:00 +5°C° 0 mm 3 mps 771 mmHg 91%
    07:00 +7°C° 0 mm 3 mps 771 mmHg 87%
    08:00 +7°C° 0 mm 3 mps 771 mmHg 84%
    09:00 +8°C° 0 mm 3 mps 771 mmHg 80%
    10:00 +10°C° 0 mm 3 mps 771 mmHg 75%
    11:00 +12°C° 0 mm 4 mps 771 mmHg 71%
    12:00 +13°C° 0 mm 4 mps 771 mmHg 66%
    13:00 +14°C° 0 mm 4 mps 771 mmHg 67%
    14:00 +14°C° 0 mm 4 mps 770 mmHg 67%
    15:00 +15°C° 0 mm 4 mps 770 mmHg 67%
    16:00 +13°C° 0 mm 3 mps 770 mmHg 73%
    17:00 +11°C° 0 mm 3 mps 770 mmHg 80%
    18:00 +10°C° 0 mm 3 mps 770 mmHg 86%
    19:00 +9°C° 0 mm 3 mps 770 mmHg 88%
    20:00 +9°C° 0 mm 3 mps 770 mmHg 89%
    21:00 +8°C° 0 mm 2 mps 770 mmHg 91%
    22:00 +8°C° 0 mm 2 mps 770 mmHg 92%
    23:00 +8°C° 0 mm 2 mps 770 mmHg 92%
    Show more